User: anonymous   Login
Location: Unspecified
(0.0000°N, 0.0000°E)
Time: 09:05:39
(UTC+00:00)
Language:

YAOGAN 4 - Orbit

View from above orbital plane
View from above orbital plane
View from above satellite
View from above satellite

Ground track
Ground track

The orbit data is extracted from the following two-line orbital elements,

1 33446U 08061A   18018.79209091  .00000052  00000-0  14228-4 0  9998
2 33446  97.6105   8.2887 0015035 324.6478  35.3735 14.76735064491846
Epoch (UTC): 18 January 2018 19:00:36
Eccentricity: 0.0015035
inclination: 97.6105°
perigee height: 629 km
apogee height: 650 km
right ascension of ascending node: 8.2887°
argument of perigee: 324.6478°
revolutions per day: 14.76735064
mean anomaly at epoch: 35.3735°
orbit number at epoch: 49184

The dashed part of the orbit path shows where the satellite is in the earth's shadow,  

DLR